Wind_Speed
10 9 8 8 9 9 8 8 8 7 6 6 5 4 4 3 2 2 3 4 7 9 9 10 11 11 11 10 10 9 9 8 7 6 6 5 5 5 6 6 6 6 6 6 6 6 5 5 5
10 9 8 8 9 7 8 8 8 7 6 6 5 4 4 3 3 3 3 4 6 9 10 10 11 12 12 12 11 10 9 8 7 6 5 5 4 4 5 5 5 5 5 6 5 5 4 4 4
10 9 8 9 8 5 7 8 8 7 7 7 6 5 5 4 4 3 3 4 6 8 9 10 11 12 12 12 11 11 10 9 8 6 5 4 4 3 3 4 4 4 4 5 4 4 3 3 3
10 10 8 8 7 8 8 8 8 7 8 7 7 6 6 5 5 4 3 4 6 8 9 10 12 13 13 13 12 11 10 9 8 6 5 4 3 3 3 3 3 3 3 3 3 3 3 2 2
10 10 9 8 7 9 9 8 8 8 8 8 8 8 8 7 6 5 4 4 6 8 10 10 12 13 13 13 13 12 11 10 8 7 6 4 3 2 2 2 2 2 2 2 3 2 2 1 1
9 10 8 6 8 9 9 9 8 8 9 9 9 9 10 9 7 6 6 7 7 9 10 12 13 14 14 14 14 13 12 10 9 7 6 5 3 2 1 1 2 2 2 2 2 1 1 0 0
9 9 8 7 9 10 9 9 8 8 9 9 10 10 10 10 9 8 7 7 7 8 11 12 14 15 15 15 15 14 13 11 9 8 7 5 3 1 1 1 1 1 1 2 2 1 1 1 1
9 9 8 8 8 9 9 9 8 9 10 10 10 11 10 11 10 10 9 8 8 9 11 12 14 15 17 17 16 15 13 11 10 9 7 5 3 2 1 0 1 1 1 2 2 1 1 1 1
9 8 7 7 7 8 8 9 9 10 11 11 11 11 12 12 11 11 10 9 9 9 11 13 14 16 18 18 17 16 14 12 11 9 7 6 4 2 1 1 1 1 1 1 1 1 2 2 2
9 7 7 7 7 8 9 10 10 11 11 12 12 13 13 13 13 12 11 10 10 10 11 13 16 17 18 18 18 17 15 14 12 10 8 6 5 3 2 1 0 0 0 1 1 1 2 2 2
10 8 7 7 8 8 9 9 10 11 12 12 13 14 14 15 16 15 13 13 12 12 13 13 16 18 18 19 19 18 17 15 13 10 8 6 5 3 2 2 1 1 1 1 1 1 2 2 2
10 9 8 8 8 8 9 10 11 12 12 13 14 15 15 16 17 17 15 14 13 13 14 14 17 19 19 19 19 19 18 16 13 11 9 7 6 5 4 3 2 1 1 1 1 1 1 1 2
10 10 9 9 9 9 9 10 12 13 13 13 14 15 15 17 18 17 16 15 13 14 14 15 17 19 21 20 19 19 18 16 14 11 9 7 6 6 5 3 2 2 2 1 1 1 1 1 2
11 11 10 10 10 9 10 12 13 13 14 14 15 16 17 18 19 17 17 15 14 14 12 14 17 20 21 21 20 21 19 17 14 12 9 8 7 6 5 4 4 3 2 1 0 0 0 1 1
11 11 11 11 11 10 11 12 14 14 15 15 16 18 19 19 18 17 16 14 13 12 11 11 15 19 21 22 21 21 20 18 15 13 10 9 8 7 5 5 4 3 2 2 1 1 1 1 0
12 11 11 13 12 11 11 11 15 15 15 16 17 18 19 18 17 16 15 13 13 12 11 12 13 17 20 22 22 22 20 18 16 14 12 10 9 8 6 5 5 4 3 2 1 1 1 1 1
12 11 11 13 12 12 13 13 16 16 16 17 18 18 18 17 16 15 13 11 11 10 10 12 14 17 20 22 22 22 21 19 17 15 13 10 10 8 7 6 5 4 3 3 2 2 2 1 1
13 12 13 13 13 12 13 14 15 16 17 18 18 18 17 16 15 14 11 10 9 9 10 12 14 15 17 20 21 21 20 19 17 15 13 12 11 9 8 7 6 5 4 3 3 3 2 2 1
14 13 13 14 13 13 13 14 15 16 18 18 18 17 15 15 15 12 10 9 8 8 10 12 15 15 17 19 20 20 19 18 17 15 13 13 11 10 8 7 7 6 5 4 3 3 2 2 1
14 13 13 14 14 13 12 13 15 16 17 18 17 16 15 15 13 11 9 8 7 6 8 11 14 15 17 20 20 19 19 18 16 16 14 13 11 10 8 7 7 6 5 4 4 3 3 2 1
14 14 14 14 14 13 12 12 14 15 16 16 15 15 14 13 12 10 8 7 6 6 8 11 13 15 17 19 20 19 19 17 17 16 15 13 12 10 9 8 7 7 6 5 4 4 3 3 2
15 15 14 14 12 13 12 11 12 13 14 14 15 14 13 12 11 9 7 6 5 6 7 10 13 15 16 18 18 18 18 17 17 17 15 14 13 11 10 9 9 8 7 6 6 5 4 3 2
16 16 14 13 13 12 12 11 10 12 13 13 13 12 11 10 9 8 7 6 5 5 6 8 12 15 17 18 18 17 18 18 18 17 16 15 13 12 11 10 10 9 8 8 7 6 5 3 3
16 15 14 13 13 12 12 11 10 12 12 12 11 10 10 9 8 7 6 5 4 4 5 7 10 14 16 17 18 18 18 18 18 17 16 15 14 13 12 11 11 10 10 9 8 7 6 5 4
16 14 13 13 13 13 14 12 11 11 11 11 10 10 9 9 8 7 5 5 4 3 4 7 9 12 14 16 18 18 18 18 17 16 15 14 14 13 13 13 12 12 11 11 10 9 8 7 6
17 16 15 14 13 13 15 13 11 11 11 10 10 9 9 8 8 7 6 5 4 3 3 6 8 10 13 15 18 18 18 18 17 16 15 15 14 15 14 14 14 13 13 13 12 11 11 10 9
19 18 16 16 15 14 13 13 12 11 11 10 10 9 8 8 8 8 7 6 5 3 3 5 7 9 11 15 17 17 17 17 17 16 15 15 15 15 16 15 15 15 15 15 14 13 13 13 12
19 18 19 17 16 15 13 12 11 11 11 10 10 9 8 8 8 8 7 6 5 3 3 4 7 10 11 13 15 16 16 16 16 16 16 16 15 15 17 17 16 16 16 17 17 16 16 16 16
20 20 19 18 17 16 14 13 13 12 12 11 10 10 9 8 8 7 6 6 5 3 2 3 5 8 11 12 13 15 15 16 15 15 16 16 16 16 17 17 17 17 17 18 18 19 19 19 19
21 20 20 19 19 18 16 15 15 13 12 11 11 10 10 9 8 7 6 5 5 4 3 3 4 6 9 11 12 13 14 15 15 15 16 17 17 17 17 18 18 18 18 19 20 20 21 21 22
Wind_Direction
19 20 21 23 23 27 17 7 5 3 8 15 13 8 9 8 353 298 260 231 215 210 204 199 197 196 197 200 200 197 187 172 157 143 130 119 105 91 79 76 73 68 65 63 62 64 68 72 81
15 15 16 18 29 21 2 356 358 355 354 358 359 356 354 352 331 305 270 239 223 215 211 209 205 201 199 202 202 202 196 182 167 153 140 126 110 92 79 74 70 67 65 62 58 59 64 68 78
10 10 12 15 20 12 351 351 352 350 351 352 356 354 345 341 331 315 288 246 224 217 214 212 210 208 204 206 205 205 201 190 176 165 153 138 121 100 82 74 68 65 61 55 52 53 60 67 79
5 5 8 12 5 353 347 349 345 347 347 348 350 350 345 337 332 326 296 254 231 222 219 217 214 213 209 209 208 208 205 197 185 176 165 152 134 111 91 78 65 56 50 45 42 45 51 64 87
359 2 4 5 353 344 345 346 343 342 343 345 345 345 342 337 328 317 293 269 246 235 227 222 220 217 211 210 210 210 208 202 193 185 176 165 151 130 100 66 49 40 34 26 30 36 42 53 93
356 359 5 350 339 339 340 342 341 340 341 345 346 343 339 335 324 312 292 278 259 242 232 227 221 216 211 211 210 209 209 205 199 193 186 179 170 149 115 60 37 28 11 3 9 12 6 19 215
350 355 357 347 339 335 336 338 337 338 338 342 344 343 338 333 327 314 304 292 269 249 237 229 222 216 213 212 211 209 209 208 204 199 195 193 192 173 117 45 20 0 336 334 332 325 307 294 264
343 346 350 345 336 327 331 333 332 334 335 337 338 337 336 333 326 321 308 295 278 258 242 233 227 221 216 212 211 210 210 210 209 205 202 203 205 197 183 9 358 339 316 318 317 312 301 301 283
335 337 334 330 324 319 322 323 325 328 329 331 333 332 331 330 326 322 311 299 286 270 253 239 228 221 217 213 213 211 210 212 212 209 209 211 213 212 219 257 305 345 328 312 310 306 293 294 293
326 330 317 316 316 315 315 317 320 325 328 329 327 328 327 328 326 320 311 298 285 273 260 243 225 220 217 215 215 214 211 212 213 213 215 218 225 224 222 231 218 17 11 325 301 297 292 290 287
319 317 314 312 310 309 309 310 319 327 328 327 326 327 327 325 324 316 306 296 286 273 260 240 227 221 218 218 216 215 213 212 214 216 218 222 229 227 224 219 214 259 250 271 280 295 292 287 278
311 311 307 306 306 304 304 306 313 318 321 323 326 326 327 326 322 313 304 298 291 279 262 240 230 220 218 219 219 216 213 213 216 218 222 229 232 230 218 213 218 234 240 258 270 288 284 271 267
304 302 299 300 299 303 306 305 309 310 315 319 325 326 325 325 321 310 301 298 289 279 260 236 229 220 215 213 218 216 214 215 218 220 223 227 227 221 213 213 209 211 220 229 281 301 276 261 269
298 297 294 296 299 301 303 303 306 309 311 313 318 323 323 322 318 310 301 296 287 277 256 236 228 219 213 210 214 215 214 215 217 221 220 219 218 216 213 207 196 193 195 192 263 282 235 250 261
292 292 291 292 297 299 304 306 306 308 309 311 315 317 319 320 318 312 302 291 285 272 250 238 227 220 215 212 213 214 215 217 218 220 219 216 213 210 209 200 192 187 175 162 165 177 185 199 216
287 286 285 289 295 299 302 296 301 308 310 311 314 316 317 318 317 312 306 294 282 265 248 236 225 218 215 210 212 214 215 216 217 218 216 213 208 203 196 193 190 186 171 167 163 172 177 183 208
281 277 273 282 293 299 299 293 298 307 310 312 313 315 316 315 316 312 305 292 279 258 242 229 216 210 211 211 214 214 214 215 217 216 213 211 202 194 193 191 191 180 173 170 173 175 174 182 215
268 270 274 278 288 296 297 297 299 307 310 314 315 315 315 317 316 312 305 295 280 255 233 223 212 209 210 211 211 211 215 215 216 213 208 205 199 195 196 196 192 184 178 178 183 188 191 201 216
269 271 273 279 288 295 298 299 301 306 310 315 317 315 315 317 318 313 304 295 282 255 231 221 216 210 209 207 206 209 213 212 214 211 206 204 202 198 197 196 195 187 176 174 179 183 193 205 213
269 269 271 277 284 294 301 301 302 305 309 315 317 315 315 316 320 319 310 298 281 263 233 221 214 212 209 207 207 207 209 211 209 206 205 206 204 199 200 199 199 190 184 182 182 183 187 184 183
264 263 263 269 282 292 301 306 304 306 311 316 318 317 317 318 320 317 309 297 286 265 240 226 219 216 209 208 210 211 211 209 204 203 204 205 204 204 204 204 201 197 194 190 186 184 182 180 186
257 260 263 270 276 283 297 304 304 309 316 320 320 321 321 320 319 318 312 303 284 262 245 229 222 218 212 210 211 211 209 205 205 204 206 205 206 207 207 207 203 199 197 197 194 190 189 190 202
251 258 261 268 273 280 294 301 298 308 317 322 325 327 330 329 323 321 317 309 292 272 243 228 224 217 213 211 209 209 206 204 204 206 208 207 208 209 209 206 203 202 202 204 204 204 204 207 214
253 257 263 268 273 278 282 289 294 304 314 320 324 329 336 343 340 334 329 319 296 282 249 230 218 211 210 211 210 209 206 204 205 208 210 210 211 212 212 208 207 208 210 213 214 215 217 221 228
253 253 260 266 272 277 279 283 286 294 307 316 322 326 335 342 342 338 335 333 310 288 250 226 217 211 208 207 206 208 209 207 208 210 211 212 214 215 214 213 214 217 217 219 221 224 227 235 245
249 246 245 248 258 270 282 282 287 291 299 306 313 319 329 334 341 336 328 337 325 288 247 226 218 210 208 206 207 208 209 209 210 211 213 214 216 217 218 221 223 224 225 227 229 233 236 242 251
245 245 244 249 256 262 268 280 288 289 293 299 303 308 319 326 332 335 330 326 325 298 242 221 216 212 209 207 209 208 209 211 214 214 217 219 222 222 224 229 231 231 232 234 236 240 243 248 254
243 246 249 249 253 261 272 282 283 283 288 291 294 297 306 314 323 329 327 320 316 298 265 240 227 216 206 207 210 213 212 212 214 219 223 225 226 228 231 233 235 237 238 240 243 245 248 252 257
247 248 250 249 249 252 263 273 277 277 280 282 285 291 296 303 317 325 323 320 314 303 275 247 218 211 209 209 210 213 215 218 221 222 225 228 230 233 235 237 238 241 244 246 248 250 253 256 260
249 249 251 253 256 259 258 264 269 276 277 275 275 279 286 292 301 308 316 312 307 293 274 245 227 221 218 214 214 216 219 223 224 226 230 233 235 237 240 241 243 245 248 250 251 254 256 259 262
Height
5904 5903 5903 5903 5903 5903 5902 5901 5900 5898 5897 5896 5894 5893 5892 5891 5892 5893 5890 5888 5888 5888 5888 5889 5890 5892 5893 5894 5894 5895 5895 5896 5896 5897 5897 5898 5898 5899 5899 5899 5899 5898 5898 5898 5898 5898 5897 5897 5897
5904 5903 5903 5903 5903 5904 5903 5901 5899 5898 5896 5895 5893 5892 5891 5890 5889 5888 5887 5886 5886 5887 5887 5888 5889 5890 5891 5893 5894 5894 5895 5895 5896 5897 5897 5898 5898 5899 5899 5899 5899 5899 5898 5898 5898 5897 5897 5897 5897
5904 5903 5903 5903 5903 5903 5902 5900 5899 5897 5895 5894 5893 5891 5890 5889 5888 5887 5886 5885 5885 5885 5886 5887 5888 5889 5890 5891 5892 5893 5894 5895 5895 5896 5897 5897 5898 5898 5898 5898 5899 5898 5898 5898 5897 5897 5897 5896 5896
5904 5903 5903 5903 5903 5901 5900 5899 5897 5896 5895 5893 5892 5891 5889 5888 5887 5886 5884 5884 5884 5884 5884 5885 5886 5888 5889 5890 5891 5892 5893 5894 5895 5896 5896 5897 5897 5898 5898 5898 5898 5898 5898 5897 5896 5896 5896 5896 5896
5903 5903 5903 5902 5901 5900 5899 5898 5897 5895 5894 5892 5891 5890 5888 5887 5885 5884 5883 5882 5882 5882 5882 5883 5884 5886 5887 5888 5890 5891 5892 5893 5894 5895 5896 5896 5897 5897 5897 5897 5897 5897 5897 5896 5896 5895 5895 5895 5895
5903 5902 5903 5903 5901 5899 5898 5897 5896 5895 5893 5892 5890 5888 5887 5885 5884 5882 5881 5881 5880 5880 5880 5881 5882 5884 5885 5887 5888 5890 5891 5892 5893 5894 5895 5896 5896 5897 5897 5897 5897 5896 5896 5895 5895 5895 5894 5894 5894
5902 5902 5902 5901 5900 5899 5898 5896 5895 5894 5892 5891 5889 5887 5885 5883 5882 5881 5880 5879 5878 5878 5879 5879 5880 5881 5883 5885 5887 5888 5890 5891 5892 5893 5894 5895 5895 5896 5896 5896 5896 5895 5895 5895 5894 5894 5893 5893 5893
5900 5901 5900 5900 5899 5898 5897 5895 5894 5892 5891 5889 5888 5886 5884 5882 5880 5879 5877 5876 5876 5876 5876 5877 5878 5879 5881 5883 5885 5887 5888 5890 5891 5892 5893 5894 5894 5894 5895 5895 5895 5894 5894 5894 5893 5893 5892 5892 5892
5899 5900 5899 5898 5898 5897 5895 5894 5893 5891 5889 5888 5886 5884 5882 5880 5878 5877 5875 5874 5874 5874 5874 5874 5875 5876 5878 5880 5882 5884 5886 5888 5890 5891 5892 5892 5893 5893 5893 5894 5894 5893 5893 5893 5892 5892 5892 5892 5891
5898 5898 5898 5896 5896 5895 5894 5892 5891 5890 5888 5886 5884 5882 5880 5878 5876 5874 5873 5872 5871 5871 5870 5870 5871 5873 5876 5878 5880 5882 5884 5886 5888 5889 5890 5891 5892 5892 5892 5892 5892 5892 5892 5892 5892 5891 5891 5891 5891
5896 5896 5895 5894 5893 5892 5892 5891 5889 5888 5887 5885 5882 5880 5878 5875 5873 5871 5869 5868 5867 5867 5867 5868 5868 5870 5873 5875 5877 5880 5882 5884 5886 5888 5889 5889 5890 5891 5891 5891 5891 5891 5891 5891 5891 5890 5890 5890 5890
5894 5893 5892 5892 5891 5890 5890 5889 5888 5886 5885 5883 5880 5878 5875 5872 5870 5867 5865 5864 5863 5863 5863 5864 5865 5867 5869 5872 5875 5877 5880 5882 5884 5886 5887 5888 5888 5889 5890 5890 5890 5890 5890 5890 5890 5890 5890 5889 5889
5892 5891 5890 5890 5889 5889 5888 5887 5886 5884 5882 5880 5878 5875 5873 5870 5866 5863 5861 5860 5859 5858 5858 5859 5861 5863 5866 5869 5872 5875 5877 5880 5882 5884 5885 5886 5887 5888 5889 5889 5889 5890 5890 5889 5889 5889 5889 5889 5889
5889 5889 5888 5888 5887 5887 5886 5885 5884 5882 5880 5878 5875 5873 5870 5867 5863 5860 5857 5857 5856 5854 5855 5856 5857 5859 5862 5866 5869 5872 5875 5878 5880 5882 5883 5884 5885 5886 5887 5888 5889 5889 5889 5889 5889 5889 5889 5889 5888
5887 5887 5886 5886 5885 5885 5885 5884 5882 5880 5878 5875 5873 5870 5867 5864 5860 5857 5854 5853 5852 5851 5852 5852 5853 5855 5859 5863 5866 5870 5873 5875 5878 5880 5881 5883 5884 5885 5886 5887 5888 5888 5889 5889 5889 5889 5889 5889 5888
5885 5885 5885 5884 5883 5883 5884 5884 5880 5877 5875 5873 5870 5867 5864 5861 5858 5855 5852 5850 5849 5848 5849 5850 5852 5853 5856 5860 5864 5867 5870 5873 5876 5878 5880 5881 5883 5884 5885 5886 5887 5887 5888 5888 5889 5889 5889 5889 5888
5882 5883 5883 5882 5881 5880 5880 5879 5877 5875 5873 5870 5867 5864 5861 5858 5855 5852 5849 5847 5846 5846 5846 5848 5850 5852 5855 5858 5861 5864 5868 5871 5874 5876 5878 5880 5881 5883 5884 5885 5886 5887 5888 5888 5888 5888 5889 5889 5889
5880 5880 5880 5879 5878 5878 5877 5876 5874 5872 5870 5867 5864 5861 5858 5856 5852 5849 5847 5846 5845 5844 5844 5846 5847 5849 5852 5855 5859 5862 5866 5869 5872 5874 5876 5878 5880 5881 5883 5884 5885 5886 5887 5887 5888 5888 5888 5888 5889
5876 5876 5876 5876 5875 5875 5875 5873 5872 5869 5867 5864 5861 5858 5856 5853 5850 5847 5845 5844 5843 5842 5843 5844 5846 5847 5851 5854 5857 5861 5864 5867 5870 5872 5875 5877 5878 5880 5882 5883 5884 5885 5886 5887 5887 5888 5888 5888 5889
5871 5872 5873 5873 5872 5872 5872 5871 5869 5867 5864 5861 5858 5855 5853 5850 5848 5845 5843 5842 5841 5841 5841 5843 5844 5847 5849 5852 5855 5858 5862 5864 5867 5870 5873 5875 5877 5879 5881 5882 5884 5885 5886 5886 5887 5888 5888 5888 5889
5868 5869 5869 5869 5869 5869 5869 5869 5867 5864 5861 5858 5855 5853 5850 5848 5845 5843 5842 5841 5840 5840 5840 5841 5843 5845 5847 5850 5853 5856 5860 5863 5866 5869 5872 5874 5876 5878 5880 5881 5883 5884 5885 5886 5887 5887 5888 5888 5888
5864 5865 5865 5866 5867 5868 5867 5867 5865 5862 5859 5856 5853 5850 5848 5845 5843 5841 5840 5840 5839 5838 5838 5839 5841 5843 5845 5848 5851 5854 5858 5861 5864 5867 5870 5872 5874 5876 5878 5880 5881 5883 5884 5885 5886 5887 5887 5888 5888
5860 5860 5862 5863 5863 5864 5864 5864 5864 5860 5857 5854 5851 5848 5846 5843 5841 5840 5839 5838 5837 5837 5837 5837 5838 5841 5843 5846 5849 5852 5856 5859 5862 5865 5868 5870 5873 5875 5877 5879 5880 5882 5883 5884 5885 5886 5887 5887 5887
5855 5857 5858 5859 5861 5862 5862 5861 5861 5858 5854 5852 5849 5847 5845 5842 5840 5838 5837 5836 5836 5835 5835 5836 5837 5839 5841 5844 5847 5850 5854 5857 5860 5863 5866 5869 5871 5873 5875 5877 5879 5880 5882 5883 5884 5885 5886 5886 5887
5852 5854 5857 5858 5859 5860 5858 5857 5857 5854 5852 5850 5848 5846 5844 5842 5839 5838 5837 5836 5835 5834 5834 5834 5835 5837 5839 5842 5845 5849 5852 5855 5858 5861 5864 5867 5869 5872 5874 5875 5877 5879 5880 5881 5883 5884 5885 5885 5885
5847 5850 5853 5856 5857 5858 5854 5853 5854 5851 5849 5848 5846 5844 5842 5841 5839 5837 5836 5835 5834 5833 5833 5834 5835 5836 5838 5841 5844 5847 5850 5854 5857 5860 5863 5865 5867 5870 5872 5873 5875 5877 5878 5879 5881 5882 5883 5883 5884
5842 5844 5848 5850 5851 5852 5852 5851 5850 5848 5846 5845 5844 5842 5841 5839 5838 5837 5835 5834 5834 5833 5833 5833 5834 5836 5838 5840 5843 5846 5849 5852 5855 5858 5860 5862 5865 5867 5869 5871 5873 5874 5875 5877 5878 5879 5880 5880 5881
5839 5841 5842 5845 5846 5848 5849 5848 5848 5845 5844 5843 5841 5840 5839 5839 5837 5836 5835 5834 5833 5833 5833 5833 5833 5835 5837 5839 5842 5845 5847 5850 5853 5855 5857 5860 5862 5864 5866 5868 5869 5871 5872 5874 5875 5876 5877 5877 5878
5834 5836 5837 5840 5842 5843 5845 5848 5843 5842 5841 5840 5839 5838 5837 5837 5836 5835 5834 5833 5833 5832 5832 5833 5833 5835 5836 5838 5841 5843 5846 5848 5850 5852 5855 5857 5859 5861 5863 5865 5866 5867 5869 5870 5871 5872 5873 5873 5873
5829 5831 5833 5835 5836 5837 5839 5844 5839 5838 5838 5837 5836 5836 5835 5835 5834 5834 5833 5833 5832 5832 5832 5833 5833 5834 5836 5837 5840 5842 5844 5846 5848 5850 5852 5854 5856 5857 5859 5861 5862 5863 5864 5865 5866 5867 5867 5868 5868